N395T KISP-KAVP

Flight info

Callsign N395T
Flight time 0h 46m
Altitude 15000
Route BDR SAX V188 LVZ
Aircraft PC12/L-SDFGRWY/S

Departure

Time 2026-04-22 01:40
Airport Long Island MacArthur Airport (KISP)

Arrival

Time 2026-04-22 02:26
Airport Wilkes-Barre/Scranton International Airport (KAVP)
Time Latitude Longitude Altitude Speed Heading
2026-04-22 01:18 40.79822 -73.10898 82 ft 0 kts 88°
2026-04-22 01:36 40.79822 -73.10897 91 ft 0 kts 88°
2026-04-22 01:36 40.79818 -73.10866 91 ft 5 kts 121°
2026-04-22 01:37 40.79803 -73.10817 91 ft 6 kts 87°
2026-04-22 01:37 40.79804 -73.10752 92 ft 8 kts 89°
2026-04-22 01:37 40.79850 -73.10721 91 ft 11 kts
2026-04-22 01:37 40.79935 -73.10720 93 ft 14 kts
2026-04-22 01:38 40.80035 -73.10719 91 ft 15 kts
2026-04-22 01:38 40.80129 -73.10717 90 ft 10 kts 10°
2026-04-22 01:38 40.80163 -73.10663 89 ft 5 kts 101°
2026-04-22 01:38 40.80149 -73.10638 92 ft 0 kts 135°
2026-04-22 01:39 40.80149 -73.10637 92 ft 0 kts 135°
2026-04-22 01:39 40.80111 -73.10587 90 ft 23 kts 135°
2026-04-22 01:39 40.79890 -73.10292 95 ft 67 kts 135°
2026-04-22 01:40 40.79492 -73.09766 188 ft 88 kts 135°
2026-04-22 01:40 40.79043 -73.09165 410 ft 97 kts 135°
2026-04-22 01:40 40.78569 -73.08432 693 ft 113 kts 121°
2026-04-22 01:40 40.78493 -73.07365 1065 ft 127 kts 82°
2026-04-22 01:41 40.78958 -73.06306 1438 ft 141 kts 47°
2026-04-22 01:41 40.79869 -73.05762 1827 ft 150 kts
2026-04-22 01:41 40.80918 -73.05655 2213 ft 157 kts
2026-04-22 01:41 40.82036 -73.05556 2597 ft 165 kts
2026-04-22 01:42 40.83191 -73.05716 2934 ft 170 kts 343°
2026-04-22 01:42 40.84375 -73.06047 3276 ft 177 kts 346°
2026-04-22 01:42 40.85581 -73.06309 3762 ft 174 kts 347°
2026-04-22 01:42 40.86765 -73.06541 4280 ft 169 kts 347°
2026-04-22 01:43 40.87530 -73.06692 4622 ft 167 kts 347°
2026-04-22 01:43 40.88669 -73.06920 5149 ft 163 kts 347°
2026-04-22 01:43 40.90135 -73.07215 5828 ft 159 kts 347°
2026-04-22 01:43 40.91239 -73.07438 6241 ft 162 kts 347°
2026-04-22 01:44 40.91982 -73.07588 6502 ft 164 kts 348°
2026-04-22 01:44 40.93120 -73.07816 6887 ft 166 kts 348°
2026-04-22 01:44 40.94272 -73.08048 7242 ft 169 kts 348°
2026-04-22 01:44 40.95454 -73.08285 7570 ft 173 kts 348°
2026-04-22 01:45 40.96655 -73.08527 7906 ft 175 kts 347°
2026-04-22 01:45 40.97855 -73.08767 8293 ft 173 kts 347°
2026-04-22 01:45 40.99029 -73.09003 8679 ft 172 kts 347°
2026-04-22 01:45 41.00207 -73.09241 9070 ft 170 kts 347°
2026-04-22 01:46 41.01374 -73.09476 9466 ft 169 kts 346°
2026-04-22 01:46 41.02532 -73.09710 9869 ft 167 kts 346°
2026-04-22 01:46 41.03676 -73.09940 10268 ft 165 kts 346°
2026-04-22 01:46 41.04806 -73.10169 10631 ft 164 kts 345°
2026-04-22 01:47 41.05917 -73.10393 10998 ft 162 kts 345°
2026-04-22 01:47 41.07004 -73.10611 11485 ft 154 kts 344°
2026-04-22 01:47 41.08042 -73.10821 11987 ft 147 kts 343°
2026-04-22 01:47 41.09035 -73.11022 12495 ft 141 kts 343°
2026-04-22 01:48 41.09998 -73.11219 12975 ft 140 kts 342°
2026-04-22 01:48 41.10979 -73.11421 13308 ft 145 kts 342°
2026-04-22 01:48 41.11981 -73.11625 13654 ft 149 kts 342°
2026-04-22 01:48 41.13032 -73.11839 13986 ft 156 kts 342°
2026-04-22 01:49 41.14128 -73.12061 14291 ft 162 kts 342°
2026-04-22 01:49 41.15182 -73.12502 14590 ft 156 kts 321°
2026-04-22 01:49 41.15840 -73.13645 14849 ft 162 kts 293°
2026-04-22 01:49 41.15921 -73.15163 15114 ft 172 kts 274°
2026-04-22 01:50 41.15815 -73.16756 15356 ft 176 kts 274°
2026-04-22 01:50 41.15711 -73.18395 15603 ft 178 kts 274°
2026-04-22 01:50 41.15611 -73.20053 15857 ft 181 kts 274°
2026-04-22 01:50 41.15511 -73.21727 16113 ft 183 kts 274°
2026-04-22 01:51 41.15409 -73.23407 16364 ft 184 kts 274°
2026-04-22 01:51 41.15306 -73.25108 16620 ft 185 kts 274°
2026-04-22 01:51 41.15201 -73.26823 16878 ft 186 kts 274°
2026-04-22 01:51 41.15097 -73.28567 17007 ft 193 kts 274°
2026-04-22 01:52 41.14988 -73.30364 17139 ft 197 kts 274°
2026-04-22 01:52 41.14877 -73.32166 17267 ft 200 kts 274°
2026-04-22 01:52 41.14762 -73.33997 17515 ft 197 kts 274°
2026-04-22 01:52 41.14649 -73.35807 17778 ft 195 kts 274°
2026-04-22 01:53 41.14540 -73.37581 18010 ft 194 kts 274°
2026-04-22 01:53 41.14430 -73.39374 18251 ft 194 kts 274°
2026-04-22 01:53 41.14319 -73.41159 18496 ft 193 kts 274°
2026-04-22 01:53 41.14209 -73.42933 18701 ft 193 kts 274°
2026-04-22 01:54 41.14100 -73.44684 18913 ft 192 kts 274°
2026-04-22 01:54 41.13989 -73.46455 19126 ft 192 kts 274°
2026-04-22 01:54 41.13878 -73.48222 19342 ft 192 kts 274°
2026-04-22 01:54 41.13767 -73.49984 19557 ft 191 kts 274°
2026-04-22 01:55 41.13662 -73.51667 19683 ft 193 kts 274°
2026-04-22 01:55 41.13550 -73.53456 19807 ft 195 kts 274°
2026-04-22 01:55 41.13435 -73.55264 19928 ft 197 kts 274°
2026-04-22 01:55 41.13320 -73.57080 20051 ft 198 kts 274°
2026-04-22 01:56 41.13205 -73.58880 20171 ft 199 kts 274°
2026-04-22 01:56 41.13087 -73.60723 20296 ft 199 kts 274°
2026-04-22 01:56 41.12970 -73.62577 20300 ft 205 kts 274°
2026-04-22 01:56 41.12848 -73.64483 20302 ft 209 kts 274°
2026-04-22 01:57 41.12723 -73.66428 20298 ft 212 kts 273°
2026-04-22 01:57 41.12596 -73.68391 20301 ft 215 kts 273°
2026-04-22 01:57 41.12467 -73.70373 20298 ft 217 kts 273°
2026-04-22 01:57 41.12339 -73.72347 20298 ft 218 kts 273°
2026-04-22 01:58 41.12208 -73.74360 20296 ft 219 kts 273°
2026-04-22 01:58 41.12076 -73.76381 20300 ft 219 kts 273°
2026-04-22 01:58 41.11945 -73.78383 20301 ft 220 kts 273°
2026-04-22 01:58 41.11813 -73.80402 20304 ft 220 kts 273°
2026-04-22 01:59 41.11678 -73.82439 20300 ft 220 kts 273°
2026-04-22 01:59 41.11547 -73.84441 20297 ft 221 kts 272°
2026-04-22 01:59 41.11412 -73.86471 20293 ft 221 kts 273°
2026-04-22 01:59 41.11320 -73.88502 20288 ft 216 kts 280°
2026-04-22 02:00 41.11585 -73.90437 20293 ft 212 kts 288°
2026-04-22 02:00 41.11939 -73.92338 20289 ft 212 kts 288°
2026-04-22 02:00 41.12227 -73.94243 20290 ft 214 kts 285°
2026-04-22 02:00 41.12471 -73.96194 20285 ft 215 kts 284°
2026-04-22 02:01 41.12714 -73.98146 20282 ft 215 kts 285°
2026-04-22 02:01 41.12967 -74.00102 20276 ft 215 kts 285°
2026-04-22 02:01 41.13222 -74.02063 20272 ft 215 kts 285°
2026-04-22 02:01 41.13567 -74.03970 20271 ft 211 kts 292°
2026-04-22 02:02 41.14096 -74.05769 20270 ft 211 kts 294°
2026-04-22 02:02 41.14607 -74.07602 20269 ft 212 kts 292°
2026-04-22 02:02 41.15077 -74.09466 20266 ft 213 kts 291°
2026-04-22 02:02 41.15542 -74.11333 20257 ft 212 kts 292°
2026-04-22 02:03 41.16004 -74.13162 20269 ft 211 kts 292°
2026-04-22 02:03 41.16474 -74.15010 20261 ft 211 kts 292°
2026-04-22 02:03 41.16944 -74.16864 20262 ft 211 kts 292°
2026-04-22 02:03 41.17412 -74.18713 20267 ft 210 kts 292°
2026-04-22 02:04 41.18341 -74.22391 20258 ft 209 kts 292°
2026-04-22 02:04 41.18787 -74.24158 20262 ft 209 kts 292°
2026-04-22 02:04 41.19265 -74.26055 20260 ft 210 kts 292°
2026-04-22 02:05 41.19722 -74.27869 20260 ft 210 kts 292°
2026-04-22 02:05 41.20186 -74.29712 20266 ft 210 kts 292°
2026-04-22 02:05 41.20652 -74.31564 20266 ft 210 kts 291°
2026-04-22 02:05 41.21115 -74.33410 20267 ft 210 kts 292°
2026-04-22 02:06 41.21573 -74.35232 20266 ft 211 kts 291°
2026-04-22 02:06 41.22036 -74.37076 20266 ft 211 kts 292°
2026-04-22 02:06 41.22496 -74.38912 20266 ft 211 kts 292°
2026-04-22 02:06 41.22965 -74.40782 20266 ft 211 kts 292°
2026-04-22 02:07 41.23423 -74.42613 20268 ft 212 kts 291°
2026-04-22 02:07 41.23895 -74.44498 20267 ft 211 kts 291°
2026-04-22 02:07 41.24350 -74.46321 20162 ft 215 kts 291°
2026-04-22 02:07 41.24835 -74.48253 19916 ft 222 kts 291°
2026-04-22 02:08 41.25327 -74.50227 19674 ft 227 kts 291°
2026-04-22 02:08 41.25828 -74.52237 19445 ft 230 kts 291°
2026-04-22 02:08 41.26329 -74.54249 19203 ft 233 kts 291°
2026-04-22 02:08 41.26848 -74.56334 18965 ft 235 kts 291°
2026-04-22 02:09 41.27363 -74.58405 18723 ft 235 kts 291°
2026-04-22 02:09 41.27874 -74.60463 18478 ft 236 kts 291°
2026-04-22 02:09 41.28386 -74.62523 18208 ft 236 kts 291°
2026-04-22 02:09 41.28901 -74.64599 17893 ft 237 kts 291°
2026-04-22 02:10 41.29419 -74.66690 17543 ft 238 kts 291°
2026-04-22 02:10 41.29941 -74.68797 17198 ft 240 kts 290°
2026-04-22 02:10 41.30455 -74.70878 16863 ft 240 kts 290°
2026-04-22 02:10 41.30979 -74.72998 16526 ft 241 kts 290°
2026-04-22 02:11 41.31504 -74.75124 16192 ft 241 kts 290°
2026-04-22 02:11 41.32029 -74.77250 15861 ft 241 kts 290°
2026-04-22 02:11 41.32551 -74.79370 15527 ft 240 kts 290°
2026-04-22 02:11 41.33065 -74.81458 15206 ft 240 kts 290°
2026-04-22 02:12 41.33584 -74.83565 14887 ft 239 kts 290°
2026-04-22 02:12 41.34098 -74.85659 14573 ft 237 kts 290°
2026-04-22 02:12 41.34608 -74.87734 14255 ft 234 kts 290°
2026-04-22 02:12 41.35103 -74.89749 13930 ft 232 kts 290°
2026-04-22 02:13 41.35606 -74.91802 13583 ft 230 kts 290°
2026-04-22 02:13 41.36100 -74.93818 13232 ft 229 kts 290°
2026-04-22 02:13 41.36594 -74.95839 12859 ft 229 kts 290°
2026-04-22 02:13 41.37088 -74.97857 12472 ft 228 kts 290°
2026-04-22 02:14 41.37580 -74.99870 12074 ft 228 kts 290°
2026-04-22 02:14 41.38064 -75.01855 11693 ft 227 kts 290°
2026-04-22 02:14 41.38551 -75.03853 11318 ft 226 kts 290°
2026-04-22 02:14 41.39036 -75.05841 10941 ft 224 kts 290°
2026-04-22 02:15 41.39511 -75.07792 10628 ft 218 kts 290°
2026-04-22 02:15 41.39972 -75.09689 10356 ft 212 kts 290°
2026-04-22 02:15 41.40417 -75.11519 10093 ft 208 kts 290°
2026-04-22 02:15 41.40860 -75.13340 9798 ft 205 kts 290°
2026-04-22 02:16 41.41296 -75.15139 9530 ft 203 kts 290°
2026-04-22 02:16 41.41728 -75.16920 9273 ft 202 kts 289°
2026-04-22 02:16 41.42160 -75.18702 9010 ft 203 kts 289°
2026-04-22 02:16 41.42595 -75.20500 8749 ft 203 kts 289°
2026-04-22 02:17 41.43029 -75.22294 8485 ft 203 kts 288°
2026-04-22 02:17 41.43460 -75.24076 8257 ft 202 kts 288°
2026-04-22 02:17 41.43885 -75.25836 8060 ft 201 kts 288°
2026-04-22 02:17 41.44316 -75.27623 7861 ft 202 kts 288°
2026-04-22 02:18 41.44749 -75.29418 7656 ft 202 kts 287°
2026-04-22 02:18 41.45004 -75.31258 7458 ft 202 kts 276°
2026-04-22 02:18 41.45103 -75.33131 7219 ft 204 kts 275°
2026-04-22 02:18 41.45245 -75.35032 6905 ft 207 kts 277°
2026-04-22 02:19 41.45421 -75.36947 6580 ft 209 kts 277°
2026-04-22 02:19 41.45596 -75.38860 6245 ft 211 kts 276°
2026-04-22 02:19 41.45628 -75.40798 5905 ft 209 kts 261°
2026-04-22 02:19 41.45292 -75.42696 5570 ft 211 kts 255°
2026-04-22 02:20 41.44904 -75.44592 5238 ft 212 kts 254°
2026-04-22 02:20 41.44533 -75.46507 4899 ft 212 kts 254°
2026-04-22 02:20 41.44203 -75.48390 4554 ft 213 kts 256°
2026-04-22 02:20 41.43945 -75.50318 4350 ft 202 kts 257°
2026-04-22 02:21 41.43756 -75.52020 4301 ft 172 kts 258°
2026-04-22 02:21 41.43604 -75.53542 4087 ft 158 kts 257°
2026-04-22 02:21 41.43445 -75.55023 3843 ft 165 kts 253°
2026-04-22 02:21 41.43164 -75.56506 3669 ft 170 kts 247°
2026-04-22 02:22 41.42774 -75.58003 3551 ft 170 kts 242°
2026-04-22 02:22 41.42334 -75.59434 3428 ft 161 kts 242°
2026-04-22 02:22 41.41932 -75.60782 3193 ft 151 kts 240°
2026-04-22 02:22 41.41517 -75.62010 3063 ft 138 kts 238°
2026-04-22 02:23 41.41107 -75.63068 3050 ft 125 kts 234°
2026-04-22 02:23 41.40718 -75.64064 2878 ft 119 kts 235°
2026-04-22 02:23 41.40352 -75.65036 2605 ft 115 kts 235°
2026-04-22 02:23 41.39978 -75.65974 2449 ft 115 kts 233°
2026-04-22 02:24 41.39578 -75.66914 2167 ft 120 kts 231°
2026-04-22 02:24 41.39081 -75.67753 1990 ft 114 kts 223°
2026-04-22 02:24 41.38511 -75.68394 1813 ft 96 kts 209°
2026-04-22 02:24 41.37936 -75.68882 1688 ft 99 kts 210°
2026-04-22 02:25 41.37346 -75.69360 1602 ft 98 kts 208°
2026-04-22 02:25 41.36768 -75.69844 1476 ft 100 kts 209°
2026-04-22 02:25 41.36175 -75.70349 1351 ft 99 kts 209°
2026-04-22 02:25 41.35604 -75.70841 1255 ft 96 kts 208°
2026-04-22 02:26 41.35048 -75.71307 1121 ft 92 kts 207°
2026-04-22 02:26 41.34537 -75.71732 987 ft 84 kts 211°
2026-04-22 02:26 41.34057 -75.72143 935 ft 76 kts 212°
2026-04-22 02:26 41.33687 -75.72458 941 ft 43 kts 213°
2026-04-22 02:27 41.33588 -75.72544 944 ft 8 kts 216°
2026-04-22 02:27 41.33598 -75.72601 943 ft 12 kts 333°
2026-04-22 02:27 41.33628 -75.72674 945 ft 11 kts 231°
2026-04-22 02:27 41.33578 -75.72724 946 ft 8 kts 215°
2026-04-22 02:28 41.33535 -75.72761 947 ft 7 kts 212°
2026-04-22 02:28 41.33491 -75.72800 949 ft 8 kts 213°
2026-04-22 02:28 41.33451 -75.72836 950 ft 7 kts 211°
2026-04-22 02:28 41.33402 -75.72877 951 ft 9 kts 209°
2026-04-22 02:29 41.33346 -75.72922 953 ft 10 kts 212°
2026-04-22 02:29 41.33287 -75.72973 954 ft 10 kts 213°
2026-04-22 02:29 41.33235 -75.73017 957 ft 8 kts 212°
2026-04-22 02:29 41.33217 -75.73076 958 ft 9 kts 304°
2026-04-22 02:30 41.33242 -75.73128 957 ft 9 kts 302°
2026-04-22 02:30 41.33317 -75.73084 955 ft 12 kts 31°
2026-04-22 02:30 41.33390 -75.73046 952 ft 11 kts 332°
2026-04-22 02:30 41.33425 -75.73085 951 ft 4 kts
2026-04-22 02:31 41.33444 -75.73071 950 ft 0 kts 32°